Location: São Paulo
(23.5507°S, 46.6334°W)
Time: 10:39:28
(UTC-03:00)

Explorer 7 - Pass Details

Date: 16 February 2026
Orbit: 430 x 541 km, 50.2° (Epoch: 11 March)

Event Time Altitude Azimuth Distance (km) Brightness Sun altitude
Rises 12:18:33 0° 249° (WSW) 2,443 10.1 78.6°
Reaches altitude 10° 12:21:45 10° 280° (W) 1,546 9.3 78.6°
Maximum altitude 12:23:13 12° 305° (NW) 1,406 9.2 78.6°
Drops below altitude 10° 12:24:40 10° 330° (NNW) 1,527 9.4 78.6°
Sets 12:27:48 0° 2° (N) 2,378 10.2 78.5°
